This demonstration page uses our WeatherBlox Daily Observations layout. Learn more.

Left ArrowRight Arrow

Hourly Observations for October 15, 2015

Temp ( °F °C ) Dew Point ( °F °C ) Humidity (%) Winds ( mph kmh ) Pressure ( in mb ) Visibility ( mi km ) Precip ( " mm )
12:53 am 00:53 Clear 38 3.3 36 2.2 93 93 Calm 30.09 1019 10 16 0.00 0.00
1:53 am 01:53 Clear 37 2.8 36 2.2 96 96 Calm 30.09 1019 10 16 0.00 0.00
2:53 am 02:53 Clear 36 2.2 34 1.1 93 93 Calm 30.09 1019 10 16 0.00 0.00
3:53 am 03:53 Clear 35 1.7 34 1.1 96 96 Calm 30.10 1019 10 16 0.00 0.00
4:53 am 04:53 Clear 34 1.1 33 0.6 97 97 Calm 30.10 1019 10 16 0.00 0.00
5:53 am 05:53 Clear with Mist and Fog 34 1.1 33 0.6 97 97 Calm 30.11 1020 6 10 0.00 0.00
6:53 am 06:53 Mostly Clear with Mist and Fog 34 1.1 33 0.6 97 97 Calm 30.13 1020 4 6 0.00 0.00
7:01 am 07:01 Mostly Clear with Mist and Fog 33 0.6 33 0.6 100 100 Calm 30.15 1021 2 3 0.00 0.00
7:11 am 07:11 Mostly Clear with Mist and Fog 33 0.6 32 0 96 96 Calm 30.15 1021 6 10 0.00 0.00
7:37 am 07:37 Mostly Clear with Mist and Fog 33 0.6 32 0 96 96 Calm 30.15 1021 2 2 0.00 0.00
7:41 am 07:41 Mostly Cloudy with Mist and Fog 33 0.6 32 0 96 96 Calm 30.15 1021 1 1 0.00 0.00
7:53 am 07:53 Mostly Cloudy with Fog 33 0.6 32 0 96 96 Calm 30.14 1021 5 8 0.00 0.00
8:25 am 08:25 Partly Cloudy with Mist and Fog 34 1.1 34 1.1 100 100 Calm 30.15 1021 2 2 0.00 0.00
8:27 am 08:27 Partly Cloudy with Mist and Fog 35 1.7 34 1.1 96 96 Calm 30.18 1022 3 5 0.00 0.00
8:53 am 08:53 Sunny 39 3.9 37 2.8 93 93 Calm 30.15 1021 10 16 0.00 0.00
9:53 am 09:53 Sunny 48 8.9 42 5.6 80 80 Calm 30.16 1022 10 16 0.00 0.00
10:53 am 10:53 Sunny 56 13.3 44 6.7 65 65 Calm 30.15 1021 10 16 0.00 0.00
11:53 am 11:53 Sunny 65 18.3 38 3.3 37 37 WSW 7 11 30.14 1021 10 16 0.00 0.00
12:53 pm 12:53 Sunny 68 20 37 2.8 32 32 W 9 15 30.12 1020 10 16 0.00 0.00
1:53 pm 13:53 Sunny 70 21.1 36 2.2 29 29 VRB 6 9 30.08 1019 10 16 0.00 0.00
2:53 pm 14:53 Sunny 71 21.7 39 3.9 31 31 VRB 6 9 30.04 1017 10 16 0.00 0.00
3:53 pm 15:53 Sunny 71 21.7 35 1.7 27 27 SW 10 17 30.02 1017 10 16 0.00 0.00
4:53 pm 16:53 Mostly Sunny 72 22.2 37 2.8 28 28 SSW 9 15 30.00 1016 10 16 0.00 0.00
5:53 pm 17:53 Mostly Cloudy 70 21.1 38 3.3 31 31 SSW 7 11 29.99 1016 10 16 0.00 0.00
6:53 pm 18:53 Mostly Sunny 67 19.4 39 3.9 36 36 SW 6 9 30.01 1016 10 16 0.00 0.00
7:53 pm 19:53 Clear 63 17.2 41 5 45 45 SW 6 9 30.00 1016 10 16 0.00 0.00
8:53 pm 20:53 Clear 57 13.9 44 6.7 62 62 Calm 30.01 1016 10 16 0.00 0.00
9:53 pm 21:53 Partly Cloudy 54 12.2 44 6.7 69 69 W 5 7 30.01 1016 10 16 0.00 0.00
10:53 pm 22:53 Clear 61 16.1 41 5 48 48 W 7 11 30.02 1017 10 16 0.00 0.00
11:53 pm 23:53 Clear 61 16.1 35 1.7 38 38 WNW 15 24 30.05 1018 10 16 0.00 0.00

Powered by AerisWeather